TimeAEST,TemperatureF,Dew PointF,Humidity,Sea Level PressureIn,VisibilityMPH,Wind Direction,Wind SpeedMPH,Gust SpeedMPH,PrecipitationIn,Events,Conditions,WindDirDegrees,DateUTC
12:00 AM,54,37,41,30.21,19,WSW,12.7,,,,Partly Cloudy,250,2013-06-03 14:00:00
12:00 AM,53.6,37.4,54,30.21,-9999.0,WSW,12.7,-,N/A,,Clear,250,2013-06-03 14:00:00
12:30 AM,53.6,37.4,54,30.21,-9999.0,WSW,11.5,-,N/A,,Clear,250,2013-06-03 14:30:00
1:00 AM,52,38,48,30.23,,West,11.5,,,,,260,2013-06-03 15:00:00
1:00 AM,51.8,37.4,58,30.21,6.2,West,11.5,-,N/A,,Partly Cloudy,260,2013-06-03 15:00:00
1:30 AM,51.8,39.2,62,30.21,6.2,West,12.7,-,N/A,,Mostly Cloudy,260,2013-06-03 15:30:00
2:00 AM,51.8,37.4,58,30.21,6.2,West,17.3,-,N/A,,Mostly Cloudy,260,2013-06-03 16:00:00
2:30 AM,53.6,37.4,54,30.21,6.2,WSW,15.0,-,N/A,,Mostly Cloudy,250,2013-06-03 16:30:00
3:00 AM,53,39,47,30.23,19,West,13.8,,,,Partly Cloudy,260,2013-06-03 17:00:00
3:00 AM,53.6,39.2,58,30.21,6.2,West,13.8,-,N/A,,Mostly Cloudy,260,2013-06-03 17:00:00
3:30 AM,51.8,39.2,62,30.21,6.2,West,10.4,-,N/A,,Mostly Cloudy,270,2013-06-03 17:30:00
4:00 AM,52,39,51,30.24,,NNW,11.5,,,,,340,2013-06-03 18:00:00
4:00 AM,51.8,39.2,62,30.21,6.2,NNW,11.5,-,N/A,,Mostly Cloudy,340,2013-06-03 18:00:00
4:30 AM,51.8,41.0,67,30.21,6.2,WNW,8.1,-,N/A,,Mostly Cloudy,300,2013-06-03 18:30:00
5:00 AM,53.6,39.2,58,30.21,6.2,WNW,6.9,-,N/A,,Mostly Cloudy,290,2013-06-03 19:00:00
5:30 AM,55.4,39.2,54,30.24,6.2,WNW,8.1,-,N/A,,Mostly Cloudy,300,2013-06-03 19:30:00
6:00 AM,53,40,49,30.27,19,NW,10.4,,,,Partly Cloudy,320,2013-06-03 20:00:00
6:00 AM,53.6,39.2,58,30.24,6.2,NW,10.4,-,N/A,,Mostly Cloudy,310,2013-06-03 20:00:00
6:30 AM,53.6,39.2,58,30.24,6.2,West,11.5,-,N/A,,Mostly Cloudy,280,2013-06-03 20:30:00
7:00 AM,53,40,51,30.28,,West,15.0,,,,,280,2013-06-03 21:00:00
7:00 AM,51.8,41.0,67,30.27,6.2,West,15.0,-,N/A,,Mostly Cloudy,280,2013-06-03 21:00:00
7:30 AM,53.6,39.2,58,30.27,6.2,WNW,10.4,-,N/A,,Mostly Cloudy,290,2013-06-03 21:30:00
8:00 AM,55.4,39.2,54,30.27,6.2,WNW,10.4,-,N/A,,Scattered Clouds,300,2013-06-03 22:00:00
8:30 AM,57.2,41.0,55,30.27,6.2,WNW,11.5,-,N/A,,Scattered Clouds,290,2013-06-03 22:30:00
9:00 AM,58,41,41,30.30,12,WNW,11.5,,,,Haze,290,2013-06-03 23:00:00
9:00 AM,57.2,41.0,55,30.30,6.2,WNW,11.5,-,N/A,,Scattered Clouds,290,2013-06-03 23:00:00
9:30 AM,59.0,42.8,55,30.30,6.2,WNW,10.4,-,N/A,,Scattered Clouds,300,2013-06-03 23:30:00
10:00 AM,61,43,40,30.31,,WNW,11.5,,,,,300,2013-06-04 00:00:00
10:00 AM,60.8,42.8,52,30.30,6.2,WNW,11.5,-,N/A,,Scattered Clouds,300,2013-06-04 00:00:00
10:30 AM,62.6,42.8,48,30.30,6.2,WNW,10.4,-,N/A,,Scattered Clouds,300,2013-06-04 00:30:00
11:00 AM,64.4,44.6,49,30.27,6.2,WNW,9.2,-,N/A,,Scattered Clouds,300,2013-06-04 01:00:00
11:30 AM,66.2,46.4,49,30.27,6.2,West,5.8,-,N/A,,Scattered Clouds,270,2013-06-04 01:30:00
12:00 PM,64.4,48.2,56,30.27,6.2,WSW,5.8,-,N/A,,Scattered Clouds,250,2013-06-04 02:00:00
12:30 PM,64.4,50.0,59,30.24,6.2,South,13.8,-,N/A,,Partly Cloudy,180,2013-06-04 02:30:00
1:00 PM,65,52,53,30.25,,South,11.5,,,,,190,2013-06-04 03:00:00
1:00 PM,64.4,51.8,64,30.24,6.2,South,11.5,-,N/A,,Scattered Clouds,190,2013-06-04 03:00:00
1:30 PM,64.4,53.6,68,30.24,6.2,South,11.5,-,N/A,,Scattered Clouds,190,2013-06-04 03:30:00
2:00 PM,64.4,51.8,64,30.21,6.2,South,11.5,-,N/A,,Partly Cloudy,180,2013-06-04 04:00:00
2:30 PM,64.4,51.8,64,30.21,6.2,South,11.5,-,N/A,,Partly Cloudy,180,2013-06-04 04:30:00
3:00 PM,64,53,57,30.24,19,South,10.4,,,,Partly Cloudy,170,2013-06-04 05:00:00
3:00 PM,64.4,51.8,64,30.21,6.2,South,10.4,-,N/A,,Partly Cloudy,170,2013-06-04 05:00:00
3:30 PM,64.4,53.6,68,30.21,6.2,South,10.4,-,N/A,,Partly Cloudy,180,2013-06-04 05:30:00
4:00 PM,63,51,56,30.24,,South,9.2,,,,,170,2013-06-04 06:00:00
4:00 PM,62.6,51.8,68,30.21,6.2,South,9.2,-,N/A,,Partly Cloudy,170,2013-06-04 06:00:00
4:30 PM,62.6,53.6,72,30.21,6.2,South,10.4,-,N/A,,Partly Cloudy,180,2013-06-04 06:30:00
5:00 PM,62.6,51.8,68,30.24,6.2,South,5.8,-,N/A,,Partly Cloudy,170,2013-06-04 07:00:00
5:30 PM,60.8,51.8,72,30.24,-9999.0,SSE,4.6,-,N/A,,Clear,160,2013-06-04 07:30:00
6:00 PM,61,51,60,30.25,19,South,4.6,,,,Partly Cloudy,170,2013-06-04 08:00:00
6:00 PM,60.8,50.0,68,30.24,-9999.0,South,4.6,-,N/A,,Clear,170,2013-06-04 08:00:00
6:30 PM,60.8,51.8,72,30.24,-9999.0,ENE,4.6,-,N/A,,Clear,70,2013-06-04 08:30:00
7:00 PM,61,52,63,30.27,,Calm,Calm,,,,,,2013-06-04 09:00:00
7:00 PM,60.8,51.8,72,30.24,-9999.0,Calm,Calm,-,N/A,,Clear,0,2013-06-04 09:00:00
7:30 PM,59.0,51.8,77,30.24,-9999.0,Calm,Calm,-,N/A,,Clear,0,2013-06-04 09:30:00
8:00 PM,59.0,51.8,77,30.27,6.2,West,3.5,-,N/A,,Partly Cloudy,270,2013-06-04 10:00:00
8:30 PM,60.8,51.8,72,30.27,6.2,Calm,Calm,-,N/A,,Partly Cloudy,0,2013-06-04 10:30:00
9:00 PM,57,52,78,30.28,16,SW,4.6,,,,Haze,230,2013-06-04 11:00:00
9:00 PM,57.2,51.8,82,30.27,6.2,SW,4.6,-,N/A,,Partly Cloudy,230,2013-06-04 11:00:00
9:30 PM,57.2,51.8,82,30.27,6.2,WSW,5.8,-,N/A,,Partly Cloudy,250,2013-06-04 11:30:00
10:00 PM,55,51,84,30.29,,WSW,5.8,,,,,250,2013-06-04 12:00:00
10:00 PM,55.4,51.8,88,30.27,-9999.0,WSW,5.8,-,N/A,,Clear,250,2013-06-04 12:00:00
10:30 PM,57.2,51.8,82,30.27,6.2,NW,3.5,-,N/A,,Partly Cloudy,310,2013-06-04 12:30:00
11:00 PM,55.4,50.0,82,30.27,6.2,NNW,1.2,-,N/A,,Partly Cloudy,340,2013-06-04 13:00:00
11:30 PM,55.4,50.0,82,30.27,6.2,NNW,5.8,-,N/A,,Partly Cloudy,340,2013-06-04 13:30:00